Total_Precipitation_Accumulation
0.00 0.00 0.00 0.00 0.00 0.00 0.00 0.00 0.00 0.00 0.01 0.03 0.07 0.12 0.22 0.27 0.34 0.43 0.51 0.50 0.66 0.74 0.94 1.33 1.69 1.93 2.17 2.06 2.09 2.01 2.06 2.25 2.35 2.49 2.61 2.85 2.86 2.83 3.06 3.33 3.48 3.66 3.74 3.56
0.00 0.00 0.00 0.00 0.00 0.00 0.00 0.00 0.01 0.03 0.04 0.05 0.09 0.18 0.31 0.38 0.38 0.48 0.62 0.69 0.95 1.08 1.12 1.31 1.63 1.94 2.14 2.15 2.12 2.16 2.36 2.44 2.55 2.88 3.32 3.72 4.03 4.19 4.25 4.40 4.42 4.33 4.19 4.06
0.00 0.00 0.00 0.00 0.00 0.00 0.00 0.01 0.02 0.04 0.08 0.12 0.17 0.34 0.43 0.42 0.42 0.53 0.71 0.81 1.02 1.17 1.30 1.24 1.29 1.48 1.77 2.01 2.19 2.25 2.55 2.88 3.23 3.72 4.26 4.64 4.99 5.21 5.12 4.93 4.78 4.55 4.34 4.13
0.00 0.00 0.00 0.00 0.00 0.01 0.01 0.01 0.02 0.04 0.08 0.19 0.21 0.41 0.54 0.52 0.59 0.63 0.69 0.73 0.86 0.85 0.94 1.09 1.13 1.24 1.49 1.74 2.03 2.32 2.61 3.10 3.85 4.56 5.10 5.51 5.69 5.68 5.57 5.32 4.93 4.53 4.19 3.88
0.00 0.01 0.01 0.00 0.00 0.00 0.01 0.00 0.01 0.04 0.06 0.16 0.19 0.41 0.66 0.67 0.69 0.77 0.88 0.82 0.77 0.74 0.76 0.86 0.95 1.08 1.29 1.50 1.83 2.21 2.65 3.27 3.91 4.57 5.13 5.56 5.73 5.64 5.39 4.95 4.44 3.94 3.47 3.11
0.01 0.01 0.00 0.00 0.00 0.00 0.00 0.01 0.03 0.06 0.10 0.21 0.19 0.34 0.72 0.92 0.94 1.03 1.02 1.05 1.00 0.88 0.84 0.81 0.79 0.89 1.05 1.31 1.64 2.00 2.42 2.97 3.47 3.88 4.39 4.71 4.88 4.83 4.50 4.02 3.44 2.99 2.67 2.38
0.02 0.01 0.01 0.00 0.00 0.00 0.00 0.02 0.08 0.14 0.18 0.23 0.20 0.39 0.86 1.13 1.11 1.17 1.11 1.12 1.13 1.01 0.90 0.80 0.76 0.78 0.90 1.13 1.46 1.71 1.97 2.34 2.67 3.03 3.40 3.60 3.62 3.47 3.25 2.97 2.65 2.30 1.98 1.70
0.07 0.04 0.01 0.00 0.01 0.01 0.01 0.02 0.11 0.23 0.25 0.29 0.38 0.71 1.11 1.16 1.05 1.05 1.05 0.97 0.94 0.88 0.84 0.86 0.87 0.87 0.96 1.04 1.21 1.40 1.54 1.74 1.88 2.01 2.19 2.23 2.21 2.12 2.09 1.95 1.74 1.51 1.27 1.02
0.12 0.07 0.02 0.01 0.01 0.01 0.01 0.03 0.06 0.10 0.16 0.31 0.62 1.05 1.33 1.25 1.16 1.05 0.94 0.78 0.82 0.78 0.71 0.77 0.81 0.89 0.95 0.96 0.96 0.96 0.97 1.04 1.07 1.09 1.19 1.24 1.24 1.21 1.18 1.09 0.98 0.88 0.79 0.70
0.10 0.08 0.04 0.02 0.01 0.02 0.02 0.04 0.05 0.10 0.26 0.41 0.66 1.05 1.44 1.57 1.50 1.43 1.16 0.86 0.84 0.78 0.70 0.66 0.65 0.68 0.72 0.71 0.68 0.65 0.67 0.68 0.64 0.60 0.61 0.66 0.70 0.68 0.65 0.63 0.61 0.56 0.52 0.47
0.08 0.09 0.07 0.05 0.05 0.06 0.04 0.05 0.06 0.11 0.19 0.37 0.75 1.21 1.37 1.60 1.62 1.50 1.24 1.00 0.97 0.89 0.79 0.73 0.70 0.61 0.59 0.60 0.57 0.54 0.55 0.53 0.49 0.48 0.48 0.45 0.43 0.41 0.38 0.36 0.35 0.32 0.30 0.28
0.08 0.13 0.11 0.09 0.08 0.06 0.07 0.07 0.07 0.15 0.18 0.24 0.63 1.36 1.56 1.72 1.72 1.62 1.57 1.38 1.18 1.06 0.94 0.86 0.78 0.63 0.56 0.54 0.52 0.50 0.48 0.44 0.42 0.39 0.36 0.33 0.29 0.28 0.27 0.25 0.24 0.21 0.20 0.19
0.09 0.21 0.27 0.35 0.30 0.14 0.09 0.08 0.09 0.11 0.16 0.32 0.66 1.35 1.67 1.73 1.66 1.62 1.48 1.38 1.38 1.35 1.20 0.98 0.80 0.64 0.52 0.46 0.46 0.45 0.42 0.40 0.37 0.35 0.34 0.33 0.28 0.24 0.23 0.21 0.20 0.18 0.18 0.17
0.09 0.21 0.38 0.66 0.56 0.25 0.13 0.11 0.12 0.14 0.26 0.43 0.66 1.10 1.39 1.56 1.67 1.74 1.65 1.59 1.55 1.32 1.00 0.78 0.67 0.59 0.53 0.49 0.47 0.42 0.38 0.35 0.33 0.33 0.33 0.36 0.34 0.28 0.24 0.23 0.21 0.17 0.14 0.13
0.12 0.24 0.26 0.28 0.27 0.20 0.17 0.15 0.15 0.18 0.23 0.41 0.67 1.04 1.37 1.51 1.63 1.66 1.71 1.65 1.41 1.16 0.97 0.81 0.70 0.65 0.62 0.54 0.46 0.39 0.35 0.32 0.30 0.31 0.32 0.33 0.33 0.29 0.25 0.21 0.19 0.16 0.12 0.11
0.14 0.27 0.22 0.25 0.24 0.27 0.31 0.27 0.29 0.29 0.36 0.50 0.78 1.14 1.34 1.54 1.63 1.57 1.56 1.50 1.44 1.33 1.18 1.03 0.90 0.81 0.72 0.60 0.49 0.44 0.42 0.38 0.34 0.35 0.35 0.31 0.28 0.25 0.22 0.19 0.17 0.15 0.14 0.13
0.18 0.24 0.30 0.32 0.24 0.36 0.57 0.43 0.36 0.40 0.49 0.65 0.90 1.12 1.12 1.16 1.31 1.42 1.49 1.45 1.44 1.41 1.34 1.22 1.12 1.01 0.89 0.74 0.62 0.56 0.52 0.45 0.40 0.40 0.37 0.34 0.30 0.25 0.20 0.16 0.16 0.15 0.16 0.16
0.17 0.26 0.30 0.34 0.42 0.75 0.74 0.49 0.45 0.49 0.58 0.59 0.70 0.80 0.87 0.91 1.00 1.10 1.17 1.33 1.47 1.46 1.38 1.28 1.15 1.03 0.94 0.79 0.66 0.58 0.49 0.42 0.41 0.42 0.37 0.31 0.29 0.25 0.20 0.16 0.15 0.14 0.16 0.16
0.10 0.23 0.37 0.44 0.64 0.83 0.79 0.52 0.52 0.73 0.84 0.60 0.53 0.55 0.58 0.63 0.75 1.01 1.10 1.24 1.41 1.43 1.36 1.27 1.14 1.03 0.92 0.78 0.65 0.54 0.49 0.44 0.42 0.38 0.31 0.25 0.23 0.21 0.18 0.17 0.15 0.14 0.15 0.16
0.10 0.18 0.39 0.54 0.80 1.05 1.03 0.51 0.35 0.63 1.10 0.74 0.57 0.56 0.63 0.74 0.87 0.92 0.85 0.89 1.09 1.26 1.32 1.27 1.11 0.93 0.80 0.64 0.49 0.44 0.42 0.37 0.33 0.26 0.20 0.18 0.18 0.16 0.14 0.14 0.13 0.13 0.14 0.14
0.28 0.33 0.47 0.61 0.91 1.06 0.62 0.33 0.41 0.87 1.07 0.87 0.74 0.71 0.80 0.97 1.00 0.79 0.71 0.79 0.90 1.03 1.10 1.02 0.90 0.78 0.63 0.48 0.41 0.39 0.33 0.27 0.20 0.16 0.15 0.16 0.16 0.16 0.14 0.15 0.16 0.15 0.15 0.17
0.39 0.53 0.62 0.75 1.02 1.06 0.44 0.31 0.54 0.68 0.61 0.62 0.57 0.54 0.58 0.60 0.58 0.58 0.64 0.75 0.86 0.91 0.89 0.81 0.72 0.61 0.49 0.41 0.40 0.38 0.32 0.24 0.17 0.17 0.17 0.16 0.15 0.10 0.08 0.16 0.18 0.18 0.21 0.23
0.31 0.44 0.60 0.77 0.92 0.75 0.40 0.31 0.33 0.38 0.44 0.43 0.41 0.38 0.42 0.45 0.49 0.50 0.54 0.64 0.73 0.74 0.70 0.62 0.50 0.44 0.40 0.36 0.36 0.35 0.30 0.22 0.21 0.24 0.24 0.19 0.15 0.12 0.11 0.14 0.18 0.20 0.21 0.20
0.35 0.26 0.36 0.57 0.61 0.51 0.38 0.32 0.26 0.25 0.28 0.27 0.28 0.31 0.38 0.44 0.44 0.42 0.43 0.46 0.51 0.52 0.49 0.47 0.42 0.39 0.34 0.30 0.27 0.28 0.23 0.20 0.28 0.32 0.27 0.22 0.20 0.16 0.13 0.13 0.12 0.15 0.16 0.15
0.41 0.47 0.61 0.71 0.60 0.53 0.47 0.37 0.28 0.23 0.20 0.19 0.23 0.28 0.31 0.33 0.33 0.31 0.32 0.33 0.34 0.33 0.34 0.34 0.32 0.29 0.24 0.20 0.17 0.16 0.16 0.17 0.27 0.28 0.23 0.19 0.15 0.14 0.16 0.13 0.06 0.05 0.06 0.04
0.34 0.60 0.98 0.81 0.65 0.66 0.57 0.42 0.33 0.30 0.27 0.26 0.23 0.22 0.24 0.24 0.23 0.22 0.25 0.28 0.27 0.24 0.23 0.23 0.22 0.19 0.15 0.13 0.14 0.11 0.09 0.10 0.19 0.23 0.19 0.14 0.11 0.10 0.11 0.14 0.12 0.04 0.01 0.01